SKH4 EGBT-EGBT

Flight info

Callsign SKH4
Flight time 0h 1m
Altitude 13000
Route VFR
Aircraft EC35/L-SDE2E3FGHIRWXY/LB1

Departure

Time 2026-04-12 15:39
Airport Turweston Aerodrome (EGBT)

Arrival

Time 2026-04-12 15:41
Airport Turweston Aerodrome (EGBT)
Time Latitude Longitude Altitude Speed Heading
2026-04-12 15:34 52.03944 -1.10312 426 ft 0 kts 280°
2026-04-12 15:39 52.03953 -1.10317 477 ft 14 kts 58°
2026-04-12 15:39 52.03907 -1.10008 697 ft 72 kts 264°
2026-04-12 15:39 52.03952 -1.10234 1016 ft 80 kts 85°
2026-04-12 15:39 52.04179 -1.09577 1310 ft 66 kts 150°
2026-04-12 15:40 52.03809 -1.08918 1341 ft 108 kts 143°
2026-04-12 15:40 52.03003 -1.07968 1083 ft 154 kts 141°
2026-04-12 15:40 52.02234 -1.06801 830 ft 153 kts 136°
2026-04-12 15:40 52.01598 -1.05428 446 ft 151 kts 109°
2026-04-12 15:41 52.01423 -1.03779 461 ft 149 kts 85°
2026-04-12 15:41 52.01580 -1.02378 372 ft 99 kts 79°
2026-04-12 15:41 52.01575 -1.01822 365 ft 0 kts 102°
2026-04-12 15:41 52.01553 -1.01988 381 ft 72 kts 266°
2026-04-12 15:42 52.01868 -1.02874 627 ft 103 kts 295°
2026-04-12 15:42 52.02304 -1.04026 727 ft 138 kts 289°
2026-04-12 15:42 52.02718 -1.05524 736 ft 151 kts 285°
2026-04-12 15:43 52.03479 -1.08292 874 ft 143 kts 288°
2026-04-12 15:43 52.03899 -1.09724 563 ft 137 kts 285°
2026-04-12 15:43 52.04096 -1.10962 454 ft 92 kts 261°
2026-04-12 15:43 52.03999 -1.11519 426 ft 4 kts 259°
2026-04-12 15:44 52.04015 -1.11500 423 ft 0 kts 30°
2026-04-12 15:44 52.04024 -1.11455 425 ft 25 kts 208°
2026-04-12 15:44 52.03942 -1.11185 455 ft 26 kts 237°
2026-04-12 15:44 52.03925 -1.11116 414 ft 0 kts 19°
2026-04-12 15:45 52.03930 -1.11108 417 ft 1 kts 168°
2026-04-12 15:45 52.03881 -1.10930 449 ft 35 kts 98°
2026-04-12 15:45 52.03789 -1.10743 799 ft 45 kts 63°
2026-04-12 15:45 52.04001 -1.10329 800 ft 42 kts 174°
2026-04-12 15:46 52.03873 -1.09990 544 ft 42 kts 109°
2026-04-12 15:46 52.03755 -1.09834 418 ft 9 kts 175°
2026-04-12 15:46 52.03716 -1.10073 863 ft 30 kts 11°
2026-04-12 15:47 52.03602 -1.10427 987 ft 48 kts 22°
2026-04-12 15:47 52.03602 -1.11257 565 ft 61 kts 345°
2026-04-12 15:47 52.03913 -1.11518 767 ft 47 kts 115°
2026-04-12 15:47 52.03931 -1.10776 482 ft 69 kts 185°
2026-04-12 15:48 52.03816 -1.10560 412 ft 0 kts 154°
2026-04-12 15:48 52.03817 -1.10554 463 ft 4 kts 245°
2026-04-12 15:48 52.03680 -1.10609 931 ft 6 kts 15°
2026-04-12 15:48 52.03902 -1.10517 1419 ft 17 kts 262°
2026-04-12 15:49 52.03690 -1.10720 1798 ft 23 kts 354°
2026-04-12 15:49 52.04048 -1.10698 1728 ft 83 kts 53°
2026-04-12 15:49 52.04455 -1.10300 1269 ft 47 kts 316°
2026-04-12 15:49 52.04612 -1.10126 886 ft 11 kts 324°
2026-04-12 15:50 52.04656 -1.10224 472 ft 18 kts 319°
2026-04-12 15:50 52.04702 -1.10331 376 ft 0 kts 356°
2026-04-12 15:51 52.04752 -1.10191 566 ft 30 kts 247°
2026-04-12 15:51 52.04465 -1.10347 929 ft 20 kts
2026-04-12 15:51 52.04722 -1.10195 1379 ft 26 kts 131°
2026-04-12 15:52 52.04630 -1.10109 1845 ft 41 kts 11°
2026-04-12 15:52 52.04684 -1.10478 410 ft 13 kts 336°
2026-04-12 15:52 52.04697 -1.10678 390 ft 0 kts 262°